This is the latest recevied weather packets stored in our database for station/object VK2KGV-15. If no packets are shown the sender has not sent any weather packets the latest 10 day(s).
| Time | Temp. | Humidity | Pressure | Rain* | Wind** | Luminosity | Snow |
|---|---|---|---|---|---|---|---|
| 1787914761 | 9.44° C | 75% | 1025.8 hPa | 0 mm | - | - | - |
| 1787911745 | 12.22° C | 66% | 1025.2 hPa | 0 mm | - | - | - |
| 1787910539 | 14.44° C | 61% | 1024.8 hPa | 0 mm | - | - | - |
| 1787909333 | 15.56° C | 58% | 1024.4 hPa | 0 mm | - | - | - |
| 1787906920 | 15.56° C | 59% | 1024.2 hPa | 0 mm | - | - | - |
| 1787905714 | 15.56° C | 58% | 1024 hPa | 0 mm | - | - | - |
| 1787904508 | 16.67° C | 54% | 1023.7 hPa | 0 mm | - | - | - |
| 1787903301 | 17.78° C | 51% | 1023.6 hPa | 0 mm | - | - | - |
| 1787902698 | 18.33° C | 49% | 1023.5 hPa | 0 mm | - | - | - |
| 1787902095 | 18.89° C | 43% | 1023.3 hPa | 0 mm | - | - | - |
| 1787898477 | 20.56° C | 39% | 1022.5 hPa | 0 mm | - | - | - |
| 1787897873 | 21.11° C | 38% | 1022.5 hPa | 0 mm | - | - | - |
| 1787897270 | 21.67° C | 38% | 1022.4 hPa | 0 mm | - | - | - |
| 1787896064 | 22.22° C | 38% | 1022.4 hPa | 0 mm | - | - | - |
| 1787894858 | 22.22° C | 37% | 1022.3 hPa | 0 mm | - | - | - |
| 1787893652 | 22.22° C | 37% | 1022.6 hPa | 0 mm | - | - | - |
| 1787892445 | 22.22° C | 38% | 1022.7 hPa | 0 mm | - | - | - |
| 1787890036 | 22.22° C | 37% | 1023.2 hPa | 0 mm | - | - | - |
| 1787889430 | 21.67° C | 38% | 1023.1 hPa | 0 mm | - | - | - |
| 1787885811 | 21.67° C | 42% | 1023.7 hPa | 0 mm | - | - | - |
| 1787882796 | 20° C | 53% | 1025 hPa | 0 mm | - | - | - |
| 1787881589 | 20° C | 53% | 1025.2 hPa | 0 mm | - | - | - |
| 1787879177 | 18.89° C | 57% | 1025.9 hPa | 0 mm | - | - | - |
| 1787877368 | 18.33° C | 61% | 1026.2 hPa | 0 mm | - | - | - |
| 1787875562 | 17.78° C | 65% | 1026.5 hPa | 0 mm | - | - | - |
* Rain since midnight (hover to see other rain measurements)
** Current wind speed in m/s (hover to see current wind gust speed)